TimeCDT,TemperatureF,Dew PointF,Humidity,Sea Level PressureIn,VisibilityMPH,Wind Direction,Wind SpeedMPH,Gust SpeedMPH,PrecipitationIn,Events,Conditions,WindDirDegrees,DateUTC
12:11 AM,60.8,53.6,77,29.72,1.8,WSW,13.8,31.1,0.01,Rain-Thunderstorm,Heavy Thunderstorms and Rain,240,2013-04-08 05:11:00
12:15 AM,57.2,51.8,82,29.71,2.0,SW,15.0,23.0,0.15,Rain-Hail-Thunderstorm,Heavy Thunderstorms with Hail,230,2013-04-08 05:15:00
12:25 AM,57.2,51.8,82,29.71,6.0,WSW,15.0,26.5,0.18,Rain-Hail-Thunderstorm,Thunderstorms with Hail,240,2013-04-08 05:25:00
12:53 AM,54.0,50.0,86,29.69,10.0,SW,8.1,-,0.23,Thunderstorm,Thunderstorm,230,2013-04-08 05:53:00
1:21 AM,53.6,50.0,88,29.71,10.0,West,4.6,-,N/A,,Overcast,280,2013-04-08 06:21:00
1:53 AM,52.0,48.9,89,29.69,10.0,WSW,6.9,-,N/A,,Mostly Cloudy,240,2013-04-08 06:53:00
2:43 AM,53.6,50.0,88,29.70,10.0,SW,5.8,-,N/A,,Mostly Cloudy,230,2013-04-08 07:43:00
2:53 AM,53.1,51.1,93,29.68,10.0,SW,5.8,-,N/A,,Mostly Cloudy,220,2013-04-08 07:53:00
3:53 AM,54.0,51.1,90,29.67,10.0,South,4.6,-,N/A,,Overcast,180,2013-04-08 08:53:00
4:05 AM,53.6,51.8,94,29.68,10.0,South,3.5,-,N/A,,Overcast,180,2013-04-08 09:05:00
4:53 AM,54.0,52.0,93,29.65,10.0,South,4.6,-,N/A,,Overcast,170,2013-04-08 09:53:00
5:33 AM,55.4,51.8,88,29.68,10.0,South,5.8,-,N/A,,Overcast,180,2013-04-08 10:33:00
5:53 AM,55.0,52.0,89,29.66,10.0,South,6.9,-,N/A,,Overcast,180,2013-04-08 10:53:00
6:53 AM,54.0,52.0,93,29.68,10.0,South,8.1,-,N/A,,Overcast,190,2013-04-08 11:53:00
7:53 AM,55.9,54.0,93,29.71,8.0,South,5.8,-,N/A,,Overcast,180,2013-04-08 12:53:00
8:53 AM,59.0,55.9,90,29.70,8.0,SSE,8.1,-,N/A,,Mostly Cloudy,160,2013-04-08 13:53:00
9:53 AM,62.1,57.9,86,29.70,9.0,SSW,6.9,-,N/A,,Mostly Cloudy,200,2013-04-08 14:53:00
10:53 AM,66.0,59.0,78,29.71,10.0,SSW,11.5,-,N/A,,Mostly Cloudy,200,2013-04-08 15:53:00
11:53 AM,68.0,60.1,76,29.72,10.0,SSW,11.5,-,N/A,,Overcast,200,2013-04-08 16:53:00
12:53 PM,69.1,60.1,73,29.71,10.0,South,11.5,-,N/A,,Overcast,170,2013-04-08 17:53:00
1:18 PM,71.6,60.8,69,29.72,10.0,SSW,10.4,18.4,N/A,,Overcast,210,2013-04-08 18:18:00
1:53 PM,70.0,61.0,73,29.70,10.0,South,10.4,-,N/A,,Mostly Cloudy,170,2013-04-08 18:53:00
2:08 PM,69.8,60.8,73,29.72,10.0,SSE,9.2,-,N/A,,Overcast,150,2013-04-08 19:08:00
2:53 PM,70.0,60.1,71,29.70,10.0,South,8.1,-,N/A,,Overcast,170,2013-04-08 19:53:00
3:53 PM,72.0,60.1,66,29.68,10.0,SE,12.7,-,N/A,,Mostly Cloudy,130,2013-04-08 20:53:00
4:53 PM,71.1,60.1,68,29.67,10.0,SSE,15.0,-,N/A,,Overcast,150,2013-04-08 21:53:00
5:53 PM,71.1,59.0,66,29.67,10.0,SSE,15.0,-,N/A,,Mostly Cloudy,150,2013-04-08 22:53:00
6:53 PM,69.1,59.0,70,29.68,10.0,South,11.5,-,N/A,,Overcast,170,2013-04-08 23:53:00
7:53 PM,66.9,59.0,76,29.69,10.0,SSE,6.9,-,N/A,,Overcast,150,2013-04-09 00:53:00
8:53 PM,66.0,57.9,75,29.70,10.0,ESE,6.9,-,N/A,,Mostly Cloudy,120,2013-04-09 01:53:00
9:53 PM,66.9,57.9,73,29.72,10.0,SE,12.7,-,N/A,,Overcast,130,2013-04-09 02:53:00
10:53 PM,66.9,57.9,73,29.72,10.0,SSE,10.4,-,N/A,,Overcast,160,2013-04-09 03:53:00
11:53 PM,66.0,57.0,73,29.70,10.0,SSE,12.7,-,N/A,,Overcast,150,2013-04-09 04:53:00